Startseite
Über Mich
AHP4
Galerie
Sehschlangen
Tourenbuch
Bookmarks
Elektronik
Bewertung
Geschichten
[Tagesmessung] [Jahreswerte] [Information]

Messwerte vom 25.06.2022

Die letzten Messwerte von 23:58:44 Uhr:
KategorieMesswert
Temperatur [°C]19
Luftdruck [mBar]996
Sonneneinstrahlung0
Wind [km/h]0 aus Ost
Niederschlag [l/m²]0
rel.Luftfeucht.86.4%
CO2 [ppm]456

Diagramme
Messwerte vom 25.06.2022
Tagesaggregation
KategorieMinimumMaximumSchnittSumme
Temperatur [°C]153623.1208
Luftdruck [mBar]992997995.5021
Sonneneinstrahlung248140.9167
Wind [km/h]12
rF [%]3196.672.27
Niederschlag [l/m²]0
CO2 [ppm]433557493.7
Einordnung alsVegetationstag
Sommertag
Heißer Tag

Messungen an benachbarten Tagen: Zur Jahresaggregation 2022
Tabelle aller Messwerte
UhrzeitTemperatur [°C]Luftdruck [mBar]SonneWind [km/h]RichtungRegen [l/m²]rF [%]CO2 [ppm]
00:01:47 17 993 0 0 NW 0 96.6 553
00:04:47 17 993 0 0 NW 0 96.6 556
00:07:49 17 992 0 0 NW 0 96.6 550
00:10:46 17 993 0 0 NW 0 96.6 548
00:13:47 17 993 0 0 NW 0 96.6 550
00:16:49 17 993 0 0 NW 0 96.6 553
00:19:49 17 993 0 0 NW 0 96.6 556
00:22:46 17 993 0 0 NW 0 96.6 557
00:25:48 17 993 0 0 NW 0 96.6 548
00:28:47 17 993 0 0 NW 0 96.6 542
00:31:49 17 993 0 0 NW 0 96.6 544
00:34:46 17 994 0 0 NW 0 96.6 547
00:37:47 17 993 0 0 O 0 96.6 548
00:40:48 17 992 0 0 O 0 96.6 544
00:43:46 17 993 0 0 W 0 96.6 544
00:46:49 17 993 0 0 W 0 96.6 545
00:49:46 17 994 0 0 W 0 96.6 547
00:52:45 17 993 0 0 W 0 96.6 547
00:55:47 17 992 0 0 SO 0 96.6 548
00:58:48 17 993 0 0 SO 0 96.6 550
01:01:45 17 993 0 0 SO 0 96.6 553
01:04:47 17 994 0 2 SO 0 96.6 553
01:07:46 17 994 0 0 SO 0 96.6 553
01:10:45 17 993 0 0 W 0 96.6 553
01:13:51 17 993 0 0 W 0 96.6 550
01:16:46 17 994 0 0 W 0 96.6 556
01:19:46 17 994 0 0 W 0 96.6 547
01:22:45 17 994 0 0 W 0 96.6 548
01:25:46 17 994 0 0 W 0 96.6 538
01:28:48 17 993 0 0 W 0 96.6 532
01:31:48 17 993 0 0 W 0 96.6 538
01:34:46 17 993 0 0 SW 0 96.6 541
01:37:48 17 993 0 0 SW 0 96.6 544
01:40:47 17 994 0 0 SW 0 96.6 541
01:43:46 17 994 0 0 SW 0 96.6 545
01:46:47 17 994 0 0 SW 0 96.6 544
01:49:46 17 993 0 0 NO 0 96.6 535
01:52:49 17 993 0 0 NO 0 96.6 533
01:55:46 17 993 0 0 NO 0 96.6 530
01:58:48 16 994 0 0 NO 0 96.6 536
02:01:48 16 994 0 0 NO 0 96.6 545
02:04:48 16 994 0 0 NO 0 96.6 539
02:07:48 16 994 0 0 SO 0 96.6 538
02:10:47 16 994 0 0 SO 0 96.6 535
02:13:48 16 994 0 0 SO 0 96.6 538
02:16:48 16 994 0 0 SO 0 96.6 538
02:19:50 16 994 0 0 SO 0 96.6 539
02:22:46 16 994 0 0 SO 0 96.6 536
02:25:48 16 994 0 0 SO 0 96.6 539
02:28:47 16 994 0 0 NO 0 96.6 538
02:31:46 16 994 0 0 NO 0 96.6 544
02:34:47 16 994 0 0 NO 0 96.6 546
02:37:50 16 994 0 0 NO 0 96.6 548
02:40:50 16 994 0 0 NO 0 96.6 553
02:43:46 16 994 0 0 NO 0 96.6 550
02:46:52 16 994 0 0 SO 0 96.6 548
02:49:49 16 994 0 0 SO 0 96.6 539
02:52:45 16 994 0 0 SO 0 96.6 541
02:55:47 16 994 0 0 SO 0 96.6 536
02:58:50 16 994 0 0 SO 0 96.6 542
03:01:48 16 994 0 0 SO 0 96.6 539
03:04:47 16 994 0 0 SO 0 96.6 533
03:07:48 16 994 0 0 SO 0 96.6 530
03:10:48 16 994 0 0 SO 0 96.6 535
03:13:46 16 994 0 0 SO 0 96.6 530
03:16:47 16 994 0 0 SO 0 96.6 524
03:19:47 16 994 0 0 SO 0 96.6 527
03:22:50 16 994 0 0 SO 0 96.6 538
03:25:46 16 995 0 0 SO 0 96.6 541
03:28:49 16 994 0 0 SO 0 96.6 542
03:31:49 16 995 0 0 SO 0 96.6 538
03:34:47 16 994 0 0 SO 0 96.6 536
03:37:48 16 995 0 0 SO 0 96.6 536
03:40:47 16 994 0 0 SO 0 96.6 532
03:43:47 16 995 0 0 SO 0 96.6 529
03:46:48 16 995 0 0 SO 0 96.6 526
03:49:46 16 994 0 0 SO 0 96.6 533
03:52:44 16 994 0 0 SO 0 96.6 535
03:55:47 16 995 0 0 SO 0 96.6 538
03:58:48 16 994 0 0 SO 0 96.6 538
04:01:46 16 995 0 0 W 0 96.6 542
04:04:49 16 995 0 0 W 0 96.6 542
04:07:48 16 995 0 0 W 0 96.6 541
04:10:48 16 995 0 0 W 0 96.6 542
04:13:46 16 995 0 0 S 0 96.6 541
04:16:48 16 995 0 0 S 0 96.6 530
04:19:46 16 995 0 0 S 0 96.6 531
04:22:47 16 995 3 0 S 0 96.6 534
04:25:45 16 995 4 0 N 0 96.6 541
04:28:47 16 995 6 0 N 0 96.6 538
04:31:46 16 995 8 0 N 0 96.6 536
04:34:46 15 995 11 0 N 0 96.6 534
04:37:47 15 995 15 1 SO 0 96.6 541
04:40:48 15 995 19 0 SO 0 96.6 541
04:43:48 15 995 24 0 SO 0 96.6 535
04:46:47 15 995 29 0 SO 0 96.6 530
04:49:49 15 995 37 0 SW 0 96.6 527
04:52:46 15 995 44 0 NW 0 96.6 533
04:55:47 15 995 50 0 S 0 96.6 542
04:58:48 16 994 56 0 S 0 96.6 545
05:01:48 16 995 63 0 SW 0 96.6 544
05:04:47 16 994 72 0 SW 0 96.6 542
05:07:46 16 995 81 0 SW 0 96.6 540
05:10:47 16 995 89 1 SW 0 96.6 536
05:13:47 15 995 97 0 W 0 96.6 535
05:16:48 15 995 104 0 W 0 96.6 538
05:19:49 15 995 110 0 W 0 96.6 542
05:22:47 16 995 116 0 W 0 96.6 536
05:25:46 16 994 121 0 W 0 96.6 538
05:28:50 16 995 129 0 W 0 96.6 530
05:31:48 16 994 136 0 W 0 96.6 531
05:34:45 16 995 142 0 W 0 96.6 530
05:37:49 16 995 147 0 W 0 96.6 535
05:40:48 16 995 154 0 SO 0 96.6 534
05:43:47 16 995 158 0 S 0 96.6 536
05:46:49 16 995 160 0 S 0 96.6 540
05:49:49 16 995 161 0 S 0 96.6 536
05:52:47 16 995 165 0 S 0 96.6 538
05:55:49 16 995 166 0 S 0 96.6 537
05:58:47 16 995 168 0 S 0 96.6 535
06:01:47 16 995 170 0 S 0 96.6 539
06:04:49 16 995 172 0 S 0 96.6 541
06:07:47 16 995 174 0 S 0 96.6 538
06:10:48 16 995 178 0 S 0 96.6 533
06:13:48 16 995 180 0 S 0 96.6 538
06:16:48 17 995 182 0 S 0 96.6 538
06:19:47 17 995 184 0 S 0 96.6 536
06:22:50 17 995 186 0 SW 0 96.6 535
06:25:48 17 995 186 2 W 0 96.6 542
06:28:48 17 995 188 0 W 0 96.6 539
06:31:49 17 995 189 0 W 0 96.6 539
06:34:47 17 995 189 0 W 0 96.6 531
06:37:47 18 995 190 0 W 0 96.6 539
06:40:49 18 995 190 0 W 0 96.6 538
06:43:47 18 995 191 0 W 0 96.6 533
06:46:48 18 995 192 0 W 0 96.6 527
06:49:48 18 995 193 0 W 0 96.6 529
06:52:48 18 995 194 0 W 0 96.6 527
06:55:50 18 995 195 0 SO 0 96.6 536
06:58:47 18 995 196 0 W 0 96.6 533
07:01:49 18 996 197 0 W 0 96.6 533
07:04:47 19 995 197 0 S 0 96.6 533
07:07:47 19 995 197 0 W 0 96.6 539
07:10:50 19 995 197 0 SW 0 96.6 539
07:13:47 19 995 197 0 S 0 96.6 539
07:16:48 19 995 196 0 W 0 96.6 541
07:19:47 19 995 194 0 W 0 96.6 542
07:22:48 20 995 192 0 W 0 96.6 535
07:25:50 20 996 189 1 S 0 96.6 526
07:28:47 20 996 187 0 SO 0 96.6 521
07:31:47 20 996 185 0 W 0 96.6 525
07:34:48 20 996 184 0 S 0 96.5 527
07:37:47 20 996 182 0 S 0 96.3 530
07:40:48 21 995 182 1 SW 0 95.8 529
07:43:48 21 996 182 0 SO 0 95.7 532
07:46:47 21 996 182 0 W 0 95.5 533
07:49:48 21 996 183 0 W 0 94.2 529
07:52:48 22 995 183 0 SO 0 93.5 536
07:55:48 22 996 182 1 SW 0 91.7 542
07:58:48 22 996 183 0 O 0 90.7 538
08:01:47 22 996 184 0 O 0 90.6 524
08:04:49 22 997 183 1 W 0 88.7 527
08:07:48 22 996 181 3 W 0 88.3 512
08:10:49 22 996 182 0 SO 0 87.6 512
08:13:50 22 996 182 0 O 0 87.5 509
08:16:50 21 996 181 0 NW 0 87.8 519
08:19:51 21 996 180 0 SW 0 88.9 519
08:22:51 21 996 181 0 S 0 89.6 521
08:25:49 20 996 183 0 O 0 90.8 516
08:28:49 20 996 184 1 NO 0 90.9 517
08:31:50 20 996 182 0 SO 0 91.2 512
08:34:49 20 996 183 0 SO 0 91.5 507
08:37:47 20 997 183 0 W 0 91.4 510
08:40:50 20 997 185 0 NO 0 92.2 512
08:43:48 20 996 187 0 N 0 92.4 517
08:46:46 20 997 186 0 S 0 92.9 516
08:49:47 20 997 184 0 SO 0 92.9 514
08:52:49 20 996 188 3 SW 0 92.9 512
08:55:49 20 996 188 0 S 0 93.2 515
08:58:48 20 996 189 4 SW 0 93.4 513
09:01:48 20 996 189 1 W 0 93.7 512
09:04:50 20 996 190 1 NW 0 93.4 516
09:07:48 21 996 190 0 S 0 92.8 511
09:10:48 21 996 191 2 SO 0 91.7 516
09:13:50 21 996 192 0 O 0 90.3 516
09:16:48 21 996 193 4 W 0 89.9 519
09:19:49 21 997 193 0 SO 0 89.6 521
09:22:49 21 996 194 3 S 0 88.5 515
09:25:50 21 996 195 0 NW 0 88.1 515
09:28:48 21 996 195 0 SW 0 88.2 516
09:31:48 21 996 195 6 O 0 88.1 512
09:34:50 21 996 196 2 W 0 87.8 507
09:37:47 21 996 195 3 W 0 87.9 513
09:40:48 22 997 196 0 W 0 87.5 518
09:43:48 22 996 196 2 SW 0 86.6 523
09:46:47 22 997 196 2 S 0 86.4 518
09:49:48 22 997 196 0 SW 0 86.6 518
09:52:49 22 996 196 2 W 0 86.3 515
09:55:48 22 997 196 4 W 0 85.7 519
09:58:49 22 996 196 2 NW 0 83.9 512
10:01:48 22 997 196 2 W 0 83.3 509
10:04:48 22 996 196 2 SO 0 83.9 504
10:07:49 22 996 196 1 SO 0 82.4 509
10:10:48 22 997 197 0 N 0 81.1 504
10:13:46 22 996 196 1 S 0 81.7 502
10:16:46 23 997 197 1 W 0 82 513
10:19:47 23 997 197 2 SO 0 82 513
10:22:48 23 996 197 1 S 0 82 509
10:25:48 23 996 198 3 O 0 79.2 509
10:28:50 23 996 198 3 NW 0 78.6 510
10:31:49 23 996 198 3 W 0 80.1 509
10:34:48 23 996 199 3 NW 0 73.6 507
10:37:49 23 996 199 3 W 0 75.9 507
10:40:48 23 996 200 0 S 0 77.2 507
10:43:47 23 996 201 4 SW 0 77.6 512
10:46:48 23 997 201 1 W 0 76.8 509
10:49:47 23 996 203 0 0 79.1 507
10:52:48 23 996 205 2 SW 0 79.5 504
10:55:48 23 997 207 2 S 0 78.7 504
10:58:50 24 996 205 0 S 0 77.7 507
11:01:31 22 997 205 1 SW 0 69.8 502
11:04:47 24 997 206 0 NW 0 73.6 500
11:07:48 24 997 208 0 W 0 76.5 498
11:10:49 24 996 212 2 SO 0 75.4 503
11:13:48 24 996 213 1 S 0 76.8 495
11:16:48 24 996 213 0 S 0 75.9 504
11:19:50 24 996 214 2 NO 0 69 507
11:22:30 23 997 213 1 SO 0 62 500
11:25:46 25 996 211 0 W 0 72.1 503
11:28:49 25 996 210 0 SO 0 69.6 500
11:31:47 25 996 208 0 W 0 68.5 497
11:34:47 25 997 204 2 S 0 73.5 495
11:37:48 26 997 203 1 SW 0 73.5 495
11:40:49 26 997 203 2 S 0 66.8 494
11:43:47 25 996 203 3 W 0 67.1 498
11:46:47 26 996 205 1 NW 0 67.9 500
11:49:48 26 996 207 1 SO 0 68.9 500
11:52:49 26 996 206 0 NW 0 68.4 495
11:55:49 26 997 206 2 W 0 68.2 497
11:58:48 27 996 206 2 W 0 65.1 500
12:01:50 27 997 206 2 S 0 57.4 497
12:04:51 28 996 206 2 SW 0 56.8 495
12:07:48 28 996 208 6 W 0 58.2 489
12:10:50 28 996 207 7 SO 0 58.7 494
12:13:47 29 996 207 5 W 0 57.7 500
12:16:50 29 997 208 0 W 0 56.8 500
12:19:31 27 996 206 1 SW 0 49.8 488
12:22:49 29 997 206 2 SW 0 51.2 492
12:25:48 30 996 206 0 W 0 50.6 495
12:28:47 30 996 207 3 N 0 50.9 497
12:31:48 30 996 207 1 SW 0 51.2 492
12:34:47 30 996 207 2 W 0 49.5 491
12:37:49 30 996 208 0 SO 0 49.2 496
12:40:49 31 996 208 1 SW 0 50.4 496
12:43:49 31 996 209 0 NO 0 49.4 495
12:46:48 31 996 210 5 NO 0 47.3 498
12:49:49 31 997 210 1 SO 0 44.7 498
12:52:48 31 995 211 1 SW 0 45.5 495
12:55:49 31 996 211 0 SO 0 46.3 495
12:58:46 31 996 212 1 S 0 45.2 492
13:01:48 31 996 214 3 NW 0 45.1 493
13:04:49 31 996 213 1 NW 0 46 489
13:07:48 31 997 216 3 O 0 41.4 492
13:10:47 30 996 216 0 S 0 46.6 492
13:13:50 30 995 217 2 NW 0 44.1 492
13:16:49 30 996 217 2 SW 0 47 489
13:19:49 30 996 217 6 NW 0 47 492
13:22:49 31 997 219 0 NO 0 47.5 486
13:25:48 31 996 222 3 N 0 45.1 480
13:28:48 30 996 220 3 0 44 480
13:31:47 29 996 216 1 0 49.3 480
13:34:52 29 996 218 0 SW 0 49.3 483
13:37:49 29 996 219 3 NW 0 48.9 480
13:40:46 29 996 221 2 O 0 46.6 485
13:43:49 29 997 224 3 N 0 45.2 486
13:46:48 29 996 228 1 NW 0 45.3 486
13:49:52 30 996 229 3 SW 0 44.9 486
13:52:47 32 996 229 3 S 0 43.7 487
13:55:49 32 996 232 2 S 0 40.3 486
13:58:49 33 997 232 12 SW 0 39.8 480
14:01:49 33 996 232 2 S 0 37.3 489
14:04:49 33 996 231 1 SW 0 37.8 486
14:07:51 33 996 231 7 NW 0 40.2 480
14:10:49 32 996 232 8 NW 0 40.6 482
14:13:50 31 997 232 3 NO 0 42.9 483
14:16:49 30 997 235 7 NW 0 45.2 483
14:19:47 31 996 228 2 0 45.6 484
14:22:47 31 996 226 3 S 0 41.7 492
14:25:48 30 996 233 2 SO 0 43 488
14:28:50 30 996 233 3 NW 0 44.5 480
14:31:46 30 996 233 4 S 0 44 477
14:34:48 31 997 241 2 W 0 41.3 475
14:37:46 31 996 226 2 S 0 40.8 474
14:40:47 31 996 230 2 S 0 40.9 473
14:43:48 31 997 242 1 SW 0 41.9 468
14:46:46 31 997 242 7 N 0 42.8 475
14:49:46 31 996 242 3 S 0 41.9 471
14:52:50 32 996 243 1 W 0 42 472
14:55:47 32 996 243 1 0 41.6 463
14:58:47 33 997 243 2 W 0 35.8 472
15:01:49 32 996 243 6 NW 0 37.8 485
15:04:50 32 996 244 1 NW 0 38.7 485
15:07:48 31 996 244 2 NW 0 39.3 477
15:10:49 30 996 244 3 NW 0 40.2 475
15:13:47 31 996 244 1 NO 0 41.6 472
15:16:48 32 996 244 4 N 0 37.2 474
15:19:48 32 996 244 0 S 0 40.3 468
15:22:49 33 996 245 5 S 0 39.7 469
15:25:31 31 997 245 2 SW 0 40 462
15:28:49 34 996 245 6 S 0 35.1 463
15:31:47 33 996 245 3 NW 0 35.1 462
15:34:31 32 996 245 6 SO 0 40 459
15:37:48 34 995 245 4 W 0 36.7 463
15:40:49 34 996 246 1 S 0 35.6 463
15:43:47 35 996 246 1 SW 0 34.2 462
15:46:48 35 996 247 2 SO 0 34.8 462
15:49:50 35 996 234 0 NW 0 33.9 467
15:52:48 33 996 236 2 SW 0 33 462
15:55:47 32 996 234 1 NO 0 35 465
15:58:49 32 996 237 5 NW 0 36.7 460
16:01:48 31 996 239 0 SW 0 37.8 462
16:04:51 31 996 243 1 SO 0 40.7 455
16:07:49 32 995 239 0 NW 0 40.6 459
16:10:48 32 996 235 7 NW 0 36.7 465
16:13:48 32 996 233 3 S 0 38.3 468
16:16:50 31 996 229 7 NW 0 39.2 468
16:19:47 30 996 229 1 S 0 40.1 462
16:22:49 30 996 229 4 S 0 39.6 465
16:25:49 30 996 232 1 S 0 39.2 465
16:28:48 30 996 233 3 S 0 39.9 461
16:31:48 30 996 227 0 N 0 42 462
16:34:48 29 995 220 1 S 0 42.3 462
16:37:52 29 995 221 0 NW 0 42.3 460
16:40:48 29 995 224 1 S 0 42.7 450
16:43:47 29 996 227 0 SO 0 42.1 454
16:46:49 29 995 231 2 SW 0 42 453
16:49:50 29 996 233 1 SW 0 42.5 459
16:52:48 29 995 234 3 SW 0 42 459
16:55:45 28 996 235 1 S 0 42.1 456
16:58:47 29 995 239 2 S 0 45.3 459
17:01:47 29 995 242 2 O 0 45 457
17:04:45 30 997 230 0 S 0 44.4 459
17:07:50 30 996 223 0 SW 0 43.5 451
17:10:48 30 996 221 0 S 0 43 451
17:13:47 29 996 224 1 S 0 43.1 453
17:16:48 29 996 228 1 SW 0 42.3 453
17:19:46 29 996 236 0 W 0 43.3 459
17:22:49 29 996 236 0 SW 0 45.2 454
17:25:47 29 995 233 4 NW 0 45.3 456
17:28:49 29 995 235 3 SW 0 45.3 454
17:31:46 29 995 232 0 S 0 45 456
17:34:47 29 996 227 3 S 0 44.3 457
17:37:46 29 996 224 1 O 0 43.4 453
17:40:48 29 995 223 1 W 0 43.1 451
17:43:49 29 996 224 3 SW 0 45.5 450
17:46:47 28 995 229 1 SW 0 45.9 453
17:49:48 29 996 248 0 S 0 46.2 454
17:52:49 31 996 248 1 SW 0 41 452
17:55:47 33 996 245 6 S 0 38.6 445
17:58:48 33 996 234 1 SW 0 38 448
18:01:47 31 996 233 5 SW 0 37 450
18:04:47 30 995 228 2 S 0 38.3 447
18:07:49 30 996 229 2 S 0 41 437
18:10:47 30 995 247 0 SO 0 42.2 442
18:13:49 32 995 246 2 S 0 41.2 451
18:16:47 32 996 247 3 SO 0 40.2 445
18:19:49 34 996 245 0 S 0 38.2 442
18:22:49 34 995 239 0 S 0 33.8 441
18:25:46 33 996 243 2 S 0 34 447
18:28:49 33 996 244 0 SO 0 35.9 442
18:31:48 33 995 237 0 S 0 36.8 439
18:34:51 33 996 247 0 S 0 37.2 442
18:37:48 34 996 247 3 S 0 34.2 444
18:40:48 35 996 247 3 S 0 34.3 448
18:43:47 36 996 247 8 S 0 32.5 445
18:46:47 36 995 247 0 S 0 32.2 438
18:49:49 36 995 247 1 NW 0 31 433
18:52:46 34 996 247 2 N 0 31.7 434
18:55:49 32 996 239 0 NW 0 36.4 434
18:58:48 31 995 235 2 S 0 38.3 439
19:01:46 30 995 225 1 N 0 38.8 439
19:04:49 29 996 224 3 S 0 41 439
19:07:48 29 995 223 2 S 0 41.4 441
19:10:47 29 996 224 1 S 0 41.9 444
19:13:49 29 995 222 0 SO 0 42.8 447
19:16:49 29 996 220 0 NW 0 43.9 450
19:19:50 28 995 218 0 NW 0 45 449
19:22:50 28 995 216 0 SO 0 45.3 442
19:25:51 28 995 223 0 NW 0 45.7 439
19:28:50 28 995 215 0 SW 0 46.2 436
19:31:47 28 996 213 1 W 0 46.4 434
19:34:46 28 995 211 1 O 0 46.9 436
19:37:48 27 996 212 0 S 0 47.6 436
19:40:51 27 996 211 0 SO 0 48.8 439
19:43:47 27 995 208 0 S 0 49.5 439
19:46:48 27 996 203 0 NO 0 50.2 439
19:49:47 27 996 199 0 S 0 51 440
19:52:49 26 995 199 0 SO 0 51.9 439
19:55:47 26 996 199 0 S 0 52.5 436
19:58:47 26 996 195 0 S 0 53.2 442
20:01:47 26 996 190 1 SO 0 53.6 446
20:04:47 26 997 188 0 SO 0 54 439
20:07:48 25 995 190 0 W 0 54.4 442
20:10:47 25 996 194 0 W 0 54.6 440
20:13:53 25 996 196 0 W 0 55.3 445
20:16:49 25 995 196 0 W 0 56 439
20:19:48 25 995 195 0 W 0 56.8 450
20:22:47 25 995 194 0 W 0 57.5 444
20:25:49 25 996 192 0 W 0 58.6 451
20:28:51 25 996 185 0 W 0 58.9 447
20:31:48 25 995 176 0 W 0 58.9 439
20:34:50 25 996 168 0 W 0 59.8 441
20:37:47 25 996 162 0 W 0 60.2 445
20:40:52 24 996 157 0 W 0 59.9 439
20:43:49 24 996 149 0 W 0 60.3 442
20:46:46 24 996 145 0 W 0 60.2 444
20:49:48 24 996 143 0 W 0 60.5 448
20:52:48 24 996 142 0 NO 0 61.4 444
20:55:48 24 996 139 0 NO 0 62 444
20:58:48 23 996 132 0 O 0 62.5 444
21:01:47 23 996 125 0 O 0 63.1 442
21:04:49 23 996 121 0 O 0 63.4 441
21:07:46 23 996 116 0 O 0 64 439
21:10:47 23 995 112 0 O 0 64.7 436
21:13:48 23 996 108 0 O 0 66.1 438
21:16:48 23 996 105 0 O 0 65.9 439
21:19:47 23 996 102 0 O 0 65.9 447
21:22:46 22 997 98 0 O 0 66.4 448
21:25:48 22 996 94 0 O 0 66.9 450
21:28:48 22 996 90 0 O 0 67.2 442
21:31:46 22 996 84 0 O 0 67.3 436
21:34:47 22 996 77 0 O 0 67.5 433
21:37:46 22 995 71 0 O 0 67.9 442
21:40:48 22 997 63 0 O 0 68.2 439
21:43:46 22 996 56 0 O 0 69.3 438
21:46:45 22 996 49 0 O 0 71.6 439
21:49:47 21 996 43 0 N 0 73.5 434
21:52:48 21 997 36 0 N 0 74.6 439
21:55:47 21 996 30 0 N 0 74.5 447
21:58:46 21 996 24 0 N 0 74.7 458
22:01:49 21 996 19 0 N 0 75 447
22:04:48 21 996 15 0 N 0 74.6 442
22:07:48 21 997 11 0 N 0 74.6 439
22:10:47 21 996 8 0 N 0 74.6 441
22:13:46 21 996 5 0 N 0 74.9 442
22:16:47 21 996 3 0 N 0 75 442
22:19:47 20 997 0 0 N 0 75.6 438
22:22:46 20 997 0 0 N 0 78.3 445
22:25:50 20 996 0 0 NO 0 78.9 442
22:28:48 21 996 0 0 NO 0 79.6 447
22:31:48 21 996 0 0 NO 0 81.1 445
22:34:47 20 997 0 0 NO 0 81.1 444
22:37:52 20 996 0 0 NO 0 79.8 441
22:40:47 20 997 0 0 NO 0 79.8 442
22:43:47 20 996 0 0 NO 0 80.3 450
22:46:50 20 997 0 0 NO 0 81.6 448
22:49:48 20 997 0 0 NO 0 82.4 451
22:52:48 20 996 0 0 NO 0 82.6 442
22:55:50 20 997 0 0 NO 0 82.6 445
22:58:46 20 996 0 0 NO 0 82.1 437
23:01:48 20 997 0 2 NO 0 84.7 439
23:04:47 20 997 0 0 NO 0 84.7 436
23:07:50 20 997 0 0 NO 0 84.6 441
23:10:47 20 996 0 0 NO 0 84.5 442
23:13:47 20 996 0 0 NO 0 83.8 451
23:16:45 19 996 0 0 NO 0 83.7 445
23:19:49 19 997 0 0 SO 0 83.9 446
23:22:45 19 996 0 0 O 0 84.4 444
23:25:48 19 996 0 4 NO 0 86.3 448
23:28:46 19 996 0 0 NO 0 86.3 454
23:31:47 19 997 0 0 NO 0 86 454
23:34:46 19 997 0 0 NO 0 85.5 456
23:37:47 19 996 0 0 O 0 85.6 451
23:40:46 19 997 0 0 O 0 85.1 456
23:43:45 19 997 0 1 NO 0 85.9 447
23:46:47 19 996 0 0 NO 0 86.1 448
23:49:49 19 996 0 0 NO 0 86.1 451
23:52:46 19 996 0 0 NO 0 86.2 456
23:55:47 19 996 0 0 NO 0 86.2 459
23:58:44 19 996 0 0 O 0 86.4 456

Letzte Änderung : 04-Jan-2022
Copyright Jens Köhler, Wolfsburg, Obere Dorfstraße 10d